PRIVATE WETTERSTATION BILLIGHEIM-ALLFELD                       ZURCK
Wetterdaten: Sonntag, 10.09.2017
Datum Zeit Temp. A. Temp. A. min Temp. A. max Feuchte A. Luftdruck Regen Wind Richtung Richtung Sonnenschein ET Solar Taupunkt Windchill Windben Empfang
10.09.2017 00:00 12,4 C 12,4 C 12,4 C 89 % 1002,6 hPa 0,0 l/m 3,2 km/h (1 Bft) S-SO 157 0 min 0,000 mm 0 W/m 10,6 C 12,4 C 8,0 km/h (2 Bft) 98 %
10.09.2017 00:10 12,3 C 12,3 C 12,4 C 89 % 1002,5 hPa 0,0 l/m 1,6 km/h (1 Bft) SO 135 0 min 0,000 mm 0 W/m 10,5 C 12,3 C 8,0 km/h (2 Bft) 98 %
10.09.2017 00:20 12,3 C 12,3 C 12,3 C 89 % 1002,4 hPa 0,0 l/m 0,0 km/h (0 Bft) SO 135 0 min 0,000 mm 0 W/m 10,5 C 12,3 C 1,6 km/h (1 Bft) 97 %
10.09.2017 00:30 12,3 C 12,3 C 12,3 C 89 % 1002,5 hPa 0,0 l/m 0,0 km/h (0 Bft) SO 135 0 min 0,000 mm 0 W/m 10,5 C 12,3 C 4,8 km/h (1 Bft) 98 %
10.09.2017 00:40 12,3 C 12,3 C 12,3 C 89 % 1002,7 hPa 0,0 l/m 0,0 km/h (0 Bft) S-SO 157 0 min 0,000 mm 0 W/m 10,5 C 12,3 C 4,8 km/h (1 Bft) 97 %
10.09.2017 00:50 12,3 C 12,3 C 12,3 C 89 % 1002,5 hPa 0,0 l/m 1,6 km/h (1 Bft) S-SO 157 0 min 0,000 mm 0 W/m 10,5 C 12,3 C 8,0 km/h (2 Bft) 97 %
10.09.2017 01:00 12,2 C 12,2 C 12,3 C 89 % 1002,4 hPa 0,0 l/m 0,0 km/h (0 Bft) S-SO 157 0 min 0,000 mm 0 W/m 10,4 C 12,2 C 1,6 km/h (1 Bft) 98 %
10.09.2017 01:10 12,2 C 12,2 C 12,3 C 89 % 1002,6 hPa 0,0 l/m 0,0 km/h (0 Bft) S-SO 157 0 min 0,000 mm 0 W/m 10,4 C 12,2 C 6,4 km/h (2 Bft) 98 %
10.09.2017 01:20 12,2 C 12,2 C 12,2 C 89 % 1002,6 hPa 0,0 l/m 1,6 km/h (1 Bft) S-SO 157 0 min 0,000 mm 0 W/m 10,4 C 12,2 C 6,4 km/h (2 Bft) 97 %
10.09.2017 01:30 12,1 C 12,1 C 12,2 C 89 % 1002,6 hPa 0,0 l/m 1,6 km/h (1 Bft) SO 135 0 min 0,000 mm 0 W/m 10,3 C 12,1 C 8,0 km/h (2 Bft) 98 %
10.09.2017 01:40 12,1 C 12,1 C 12,2 C 89 % 1002,6 hPa 0,0 l/m 1,6 km/h (1 Bft) S-SO 157 0 min 0,000 mm 0 W/m 10,3 C 12,1 C 6,4 km/h (2 Bft) 98 %
10.09.2017 01:50 12,1 C 12,1 C 12,2 C 89 % 1002,6 hPa 0,0 l/m 0,0 km/h (0 Bft) S-SO 157 0 min 0,000 mm 0 W/m 10,3 C 12,1 C 4,8 km/h (1 Bft) 98 %
10.09.2017 02:00 12,0 C 12,0 C 12,1 C 89 % 1002,6 hPa 0,0 l/m 0,0 km/h (0 Bft) S-SO 157 0 min 0,000 mm 0 W/m 10,2 C 12,0 C 6,4 km/h (2 Bft) 97 %
10.09.2017 02:10 11,9 C 11,9 C 12,0 C 89 % 1002,6 hPa 0,0 l/m 3,2 km/h (1 Bft) S-SO 157 0 min 0,000 mm 0 W/m 10,1 C 11,9 C 6,4 km/h (2 Bft) 98 %
10.09.2017 02:20 11,9 C 11,9 C 11,9 C 89 % 1002,5 hPa 0,0 l/m 1,6 km/h (1 Bft) SO 135 0 min 0,000 mm 0 W/m 10,1 C 11,9 C 8,0 km/h (2 Bft) 98 %
10.09.2017 02:30 11,9 C 11,9 C 11,9 C 89 % 1002,5 hPa 0,0 l/m 0,0 km/h (0 Bft) SO 135 0 min 0,000 mm 0 W/m 10,1 C 11,9 C 6,4 km/h (2 Bft) 98 %
10.09.2017 02:40 11,9 C 11,9 C 11,9 C 89 % 1002,7 hPa 0,0 l/m 0,0 km/h (0 Bft) S-SO 157 0 min 0,000 mm 0 W/m 10,1 C 11,9 C 4,8 km/h (1 Bft) 98 %
10.09.2017 02:50 11,8 C 11,8 C 11,9 C 89 % 1002,8 hPa 0,0 l/m 1,6 km/h (1 Bft) S-SO 157 0 min 0,000 mm 0 W/m 10,0 C 11,8 C 4,8 km/h (1 Bft) 98 %
10.09.2017 03:00 11,7 C 11,7 C 11,8 C 89 % 1002,9 hPa 0,0 l/m 0,0 km/h (0 Bft) N 0 0 min 0,000 mm 0 W/m 9,9 C 11,7 C 0,0 km/h (0 Bft) 98 %
10.09.2017 03:10 11,8 C 11,7 C 11,8 C 89 % 1003,0 hPa 0,0 l/m 0,0 km/h (0 Bft) N 0 0 min 0,000 mm 0 W/m 10,0 C 11,8 C 0,0 km/h (0 Bft) 97 %
10.09.2017 03:20 11,8 C 11,8 C 11,8 C 89 % 1003,1 hPa 0,0 l/m 0,0 km/h (0 Bft) N 0 0 min 0,000 mm 0 W/m 10,0 C 11,8 C 0,0 km/h (0 Bft) 98 %
10.09.2017 03:30 11,7 C 11,7 C 11,8 C 89 % 1003,2 hPa 0,0 l/m 0,0 km/h (0 Bft) N 0 0 min 0,000 mm 0 W/m 9,9 C 11,7 C 0,0 km/h (0 Bft) 97 %
10.09.2017 03:40 11,7 C 11,7 C 11,7 C 89 % 1003,1 hPa 0,0 l/m 0,0 km/h (0 Bft) N 0 0 min 0,000 mm 0 W/m 9,9 C 11,7 C 0,0 km/h (0 Bft) 98 %
10.09.2017 03:50 11,6 C 11,6 C 11,7 C 89 % 1003,2 hPa 0,0 l/m 0,0 km/h (0 Bft) N 0 0 min 0,000 mm 0 W/m 9,8 C 11,6 C 0,0 km/h (0 Bft) 98 %
10.09.2017 04:00 11,5 C 11,5 C 11,6 C 89 % 1003,4 hPa 0,0 l/m 0,0 km/h (0 Bft) N 0 0 min 0,000 mm 0 W/m 9,8 C 11,5 C 0,0 km/h (0 Bft) 97 %
10.09.2017 04:10 11,5 C 11,5 C 11,6 C 89 % 1003,5 hPa 0,0 l/m 0,0 km/h (0 Bft) S-SO 157 0 min 0,000 mm 0 W/m 9,8 C 11,5 C 1,6 km/h (1 Bft) 98 %
10.09.2017 04:20 11,4 C 11,4 C 11,5 C 89 % 1003,6 hPa 0,0 l/m 1,6 km/h (1 Bft) S-SO 157 0 min 0,000 mm 0 W/m 9,7 C 11,4 C 4,8 km/h (1 Bft) 97 %
10.09.2017 04:30 11,4 C 11,4 C 11,4 C 89 % 1003,6 hPa 0,0 l/m 1,6 km/h (1 Bft) S-SO 157 0 min 0,000 mm 0 W/m 9,7 C 11,4 C 6,4 km/h (2 Bft) 98 %
10.09.2017 04:40 11,3 C 11,3 C 11,4 C 89 % 1003,6 hPa 0,0 l/m 0,0 km/h (0 Bft) N 0 0 min 0,000 mm 0 W/m 9,6 C 11,3 C 0,0 km/h (0 Bft) 97 %
10.09.2017 04:50 11,3 C 11,3 C 11,3 C 89 % 1003,7 hPa 0,0 l/m 0,0 km/h (0 Bft) N 0 0 min 0,000 mm 0 W/m 9,6 C 11,3 C 0,0 km/h (0 Bft) 98 %
10.09.2017 05:00 11,2 C 11,2 C 11,3 C 89 % 1003,9 hPa 0,0 l/m 0,0 km/h (0 Bft) N 0 0 min 0,000 mm 0 W/m 9,5 C 11,2 C 0,0 km/h (0 Bft) 97 %
10.09.2017 05:10 11,2 C 11,2 C 11,2 C 89 % 1003,9 hPa 0,0 l/m 0,0 km/h (0 Bft) N 0 0 min 0,000 mm 0 W/m 9,5 C 11,2 C 0,0 km/h (0 Bft) 97 %
10.09.2017 05:20 11,2 C 11,2 C 11,2 C 89 % 1003,8 hPa 0,0 l/m 0,0 km/h (0 Bft) N 0 0 min 0,000 mm 0 W/m 9,5 C 11,2 C 0,0 km/h (0 Bft) 98 %
10.09.2017 05:30 11,2 C 11,2 C 11,2 C 89 % 1003,8 hPa 0,0 l/m 1,6 km/h (1 Bft) S-SO 157 0 min 0,000 mm 0 W/m 9,5 C 11,2 C 6,4 km/h (2 Bft) 97 %
10.09.2017 05:40 11,2 C 11,2 C 11,2 C 89 % 1003,9 hPa 0,0 l/m 1,6 km/h (1 Bft) S-SO 157 0 min 0,000 mm 0 W/m 9,5 C 11,2 C 8,0 km/h (2 Bft) 98 %
10.09.2017 05:50 11,2 C 11,2 C 11,2 C 90 % 1003,9 hPa 0,0 l/m 0,0 km/h (0 Bft) S-SO 157 0 min 0,000 mm 0 W/m 9,6 C 11,2 C 4,8 km/h (1 Bft) 97 %
10.09.2017 06:00 11,2 C 11,2 C 11,3 C 89 % 1004,1 hPa 0,0 l/m 0,0 km/h (0 Bft) S-SO 157 0 min 0,000 mm 0 W/m 9,5 C 11,2 C 1,6 km/h (1 Bft) 98 %
10.09.2017 06:10 11,2 C 11,2 C 11,2 C 89 % 1004,2 hPa 0,0 l/m 1,6 km/h (1 Bft) S 180 0 min 0,000 mm 0 W/m 9,5 C 11,2 C 6,4 km/h (2 Bft) 97 %
10.09.2017 06:20 11,1 C 11,1 C 11,2 C 89 % 1004,3 hPa 0,0 l/m 0,0 km/h (0 Bft) N 0 0 min 0,000 mm 0 W/m 9,4 C 11,1 C 0,0 km/h (0 Bft) 97 %
10.09.2017 06:30 11,1 C 11,1 C 11,1 C 89 % 1004,4 hPa 0,0 l/m 0,0 km/h (0 Bft) N 0 0 min 0,000 mm 0 W/m 9,4 C 11,1 C 0,0 km/h (0 Bft) 98 %
10.09.2017 06:40 11,1 C 11,1 C 11,1 C 89 % 1004,4 hPa 0,0 l/m 0,0 km/h (0 Bft) N 0 0 min 0,000 mm 0 W/m 9,4 C 11,1 C 0,0 km/h (0 Bft) 97 %
10.09.2017 06:50 10,9 C 10,9 C 11,1 C 89 % 1004,5 hPa 0,0 l/m 0,0 km/h (0 Bft) S-SW 202 0 min 0,000 mm 0 W/m 9,2 C 10,9 C 4,8 km/h (1 Bft) 89 %
10.09.2017 07:00 10,8 C 10,8 C 10,9 C 89 % 1004,7 hPa 0,0 l/m 0,0 km/h (0 Bft) S-SW 202 0 min 0,000 mm 0 W/m 9,1 C 10,8 C 4,8 km/h (1 Bft) 97 %
10.09.2017 07:10 10,8 C 10,8 C 10,8 C 90 % 1004,7 hPa 0,0 l/m 1,6 km/h (1 Bft) S-SW 202 0 min 0,000 mm 7 W/m 9,2 C 10,8 C 6,4 km/h (2 Bft) 98 %
10.09.2017 07:20 10,7 C 10,7 C 10,8 C 89 % 1004,9 hPa 0,0 l/m 0,0 km/h (0 Bft) S-SW 202 0 min 0,000 mm 12 W/m 9,0 C 10,7 C 6,4 km/h (2 Bft) 97 %
10.09.2017 07:30 10,7 C 10,7 C 10,7 C 89 % 1004,9 hPa 0,0 l/m 0,0 km/h (0 Bft) N 0 0 min 0,000 mm 19 W/m 9,0 C 10,7 C 0,0 km/h (0 Bft) 97 %
10.09.2017 07:40 10,7 C 10,7 C 10,7 C 89 % 1005,0 hPa 0,0 l/m 0,0 km/h (0 Bft) N 0 0 min 0,000 mm 21 W/m 9,0 C 10,7 C 0,0 km/h (0 Bft) 98 %
10.09.2017 07:50 10,6 C 10,6 C 10,7 C 89 % 1005,2 hPa 0,0 l/m 1,6 km/h (1 Bft) S-SW 202 0 min 0,000 mm 19 W/m 8,9 C 10,6 C 4,8 km/h (1 Bft) 97 %
10.09.2017 08:00 10,5 C 10,5 C 10,6 C 89 % 1005,1 hPa 0,0 l/m 0,0 km/h (0 Bft) S-SW 202 0 min 0,000 mm 37 W/m 8,8 C 10,5 C 1,6 km/h (1 Bft) 98 %
10.09.2017 08:10 10,6 C 10,5 C 10,6 C 90 % 1005,2 hPa 0,0 l/m 0,0 km/h (0 Bft) N 0 0 min 0,000 mm 35 W/m 9,0 C 10,6 C 0,0 km/h (0 Bft) 97 %
10.09.2017 08:20 10,6 C 10,6 C 10,6 C 90 % 1005,5 hPa 0,0 l/m 0,0 km/h (0 Bft) N 0 0 min 0,000 mm 44 W/m 9,0 C 10,6 C 0,0 km/h (0 Bft) 98 %
10.09.2017 08:30 10,7 C 10,6 C 10,7 C 89 % 1005,7 hPa 0,0 l/m 0,0 km/h (0 Bft) S-SW 202 0 min 0,000 mm 51 W/m 9,0 C 10,7 C 1,6 km/h (1 Bft) 98 %
10.09.2017 08:40 10,8 C 10,7 C 10,8 C 90 % 1005,6 hPa 0,0 l/m 0,0 km/h (0 Bft) S-SW 202 0 min 0,000 mm 84 W/m 9,2 C 10,8 C 4,8 km/h (1 Bft) 97 %
10.09.2017 08:50 11,0 C 10,8 C 11,0 C 89 % 1005,6 hPa 0,0 l/m 0,0 km/h (0 Bft) N 0 0 min 0,000 mm 95 W/m 9,3 C 11,0 C 0,0 km/h (0 Bft) 98 %
10.09.2017 09:00 11,4 C 11,0 C 11,4 C 90 % 1005,6 hPa 0,0 l/m 0,0 km/h (0 Bft) S-SW 202 10 min 0,025 mm 181 W/m 9,8 C 11,4 C 1,6 km/h (1 Bft) 97 %
10.09.2017 09:10 11,7 C 11,4 C 11,7 C 90 % 1005,7 hPa 0,0 l/m 0,0 km/h (0 Bft) W 270 10 min 0,000 mm 181 W/m 10,1 C 11,7 C 6,4 km/h (2 Bft) 97 %
10.09.2017 09:20 11,8 C 11,7 C 11,8 C 89 % 1005,8 hPa 0,0 l/m 0,0 km/h (0 Bft) W 270 0 min 0,000 mm 132 W/m 10,0 C 11,8 C 1,6 km/h (1 Bft) 97 %
10.09.2017 09:30 11,9 C 11,7 C 11,9 C 89 % 1005,8 hPa 0,0 l/m 0,0 km/h (0 Bft) W 270 10 min 0,000 mm 181 W/m 10,1 C 11,9 C 4,8 km/h (1 Bft) 98 %
10.09.2017 09:40 12,2 C 11,9 C 12,2 C 89 % 1006,1 hPa 0,0 l/m 0,0 km/h (0 Bft) N 0 10 min 0,000 mm 179 W/m 10,4 C 12,2 C 0,0 km/h (0 Bft) 98 %
10.09.2017 09:50 12,2 C 12,2 C 12,2 C 89 % 1006,2 hPa 0,0 l/m 1,6 km/h (1 Bft) S-SW 202 10 min 0,000 mm 160 W/m 10,4 C 12,2 C 9,7 km/h (2 Bft) 97 %
10.09.2017 10:00 12,2 C 12,1 C 12,2 C 89 % 1006,4 hPa 0,0 l/m 3,2 km/h (1 Bft) S-SW 202 10 min 0,076 mm 200 W/m 10,4 C 12,2 C 8,0 km/h (2 Bft) 98 %
10.09.2017 10:10 12,3 C 12,2 C 12,3 C 89 % 1006,4 hPa 0,0 l/m 4,8 km/h (1 Bft) S-SW 202 10 min 0,000 mm 186 W/m 10,5 C 12,3 C 11,3 km/h (2 Bft) 97 %
10.09.2017 10:20 12,6 C 12,3 C 12,6 C 89 % 1006,5 hPa 0,0 l/m 1,6 km/h (1 Bft) S-SW 202 10 min 0,000 mm 325 W/m 10,8 C 12,6 C 9,7 km/h (2 Bft) 98 %
10.09.2017 10:30 12,9 C 12,6 C 12,9 C 89 % 1006,6 hPa 0,0 l/m 3,2 km/h (1 Bft) S-SW 202 10 min 0,000 mm 338 W/m 11,1 C 12,9 C 9,7 km/h (2 Bft) 98 %
10.09.2017 10:40 13,0 C 13,0 C 13,1 C 89 % 1006,5 hPa 0,0 l/m 1,6 km/h (1 Bft) SW 225 10 min 0,000 mm 329 W/m 11,2 C 13,0 C 14,5 km/h (3 Bft) 97 %
10.09.2017 10:50 13,1 C 12,9 C 13,1 C 89 % 1006,6 hPa 0,0 l/m 3,2 km/h (1 Bft) SW 225 10 min 0,000 mm 248 W/m 11,3 C 13,1 C 9,7 km/h (2 Bft) 98 %
10.09.2017 11:00 13,4 C 13,1 C 13,4 C 89 % 1006,5 hPa 0,0 l/m 4,8 km/h (1 Bft) S-SW 202 10 min 0,127 mm 619 W/m 11,6 C 13,4 C 9,7 km/h (2 Bft) 97 %
10.09.2017 11:10 14,1 C 13,4 C 14,1 C 88 % 1006,3 hPa 0,0 l/m 4,8 km/h (1 Bft) S-SW 202 10 min 0,000 mm 360 W/m 12,1 C 14,1 C 11,3 km/h (2 Bft) 98 %
10.09.2017 11:20 14,2 C 14,1 C 14,2 C 85 % 1006,3 hPa 0,0 l/m 6,4 km/h (2 Bft) S-SW 202 10 min 0,000 mm 353 W/m 11,7 C 14,2 C 17,7 km/h (3 Bft) 97 %
10.09.2017 11:30 14,3 C 14,2 C 14,3 C 84 % 1006,4 hPa 0,0 l/m 8,0 km/h (2 Bft) S-SW 202 10 min 0,000 mm 255 W/m 11,6 C 13,4 C 16,1 km/h (3 Bft) 98 %
10.09.2017 11:50 14,9 C 14,2 C 14,9 C 85 % 1006,4 hPa 0,0 l/m 9,2 km/h (2 Bft) S-SW 194 20 min 0,001 mm 279 W/m 12,4 C 13,4 C 19,3 km/h (3 Bft) 99 %
10.09.2017 12:00 15,1 C 14,9 C 15,1 C 82 % 1006,5 hPa 0,0 l/m 5,3 km/h (1 Bft) W 265 10 min 0,152 mm 185 W/m 12,0 C 15,1 C 16,1 km/h (3 Bft) 100 %
10.09.2017 12:10 15,3 C 15,1 C 15,3 C 81 % 1006,6 hPa 0,0 l/m 7,3 km/h (2 Bft) W-SW 252 10 min 0,000 mm 517 W/m 12,1 C 14,8 C 16,1 km/h (3 Bft) 100 %
10.09.2017 12:20 15,7 C 15,3 C 15,7 C 78 % 1006,6 hPa 0,0 l/m 7,3 km/h (2 Bft) S-SO 147 10 min 0,000 mm 564 W/m 11,9 C 15,2 C 16,1 km/h (3 Bft) 100 %
10.09.2017 12:30 16,1 C 15,7 C 16,1 C 79 % 1006,4 hPa 0,0 l/m 6,8 km/h (2 Bft) SW 227 10 min 0,000 mm 626 W/m 12,5 C 15,9 C 17,7 km/h (3 Bft) 100 %
10.09.2017 12:40 16,2 C 16,1 C 16,4 C 76 % 1006,5 hPa 0,0 l/m 6,6 km/h (2 Bft) S-SW 192 0 min 0,000 mm 88 W/m 12,0 C 16,1 C 14,5 km/h (3 Bft) 99 %
10.09.2017 12:50 15,7 C 15,7 C 16,2 C 77 % 1006,6 hPa 0,0 l/m 6,5 km/h (2 Bft) W-SW 257 0 min 0,000 mm 26 W/m 11,7 C 15,7 C 16,1 km/h (3 Bft) 100 %
10.09.2017 13:00 15,1 C 15,1 C 15,7 C 80 % 1006,7 hPa 0,0 l/m 3,3 km/h (1 Bft) W-SW 252 0 min 0,000 mm 32 W/m 11,7 C 15,1 C 6,4 km/h (2 Bft) 100 %
10.09.2017 13:10 14,6 C 14,6 C 15,1 C 81 % 1006,6 hPa 0,0 l/m 1,2 km/h (1 Bft) W-SW 248 0 min 0,178 mm 47 W/m 11,4 C 14,6 C 6,4 km/h (2 Bft) 100 %
10.09.2017 13:20 14,3 C 14,3 C 14,6 C 81 % 1006,2 hPa 0,0 l/m 1,5 km/h (1 Bft) W-SW 246 0 min 0,000 mm 86 W/m 11,1 C 14,3 C 4,8 km/h (1 Bft) 99 %
10.09.2017 13:30 14,3 C 14,2 C 14,3 C 83 % 1006,2 hPa 0,0 l/m 0,7 km/h (0 Bft) W-SW 246 10 min 0,000 mm 176 W/m 11,5 C 14,3 C 4,8 km/h (1 Bft) 99 %
10.09.2017 13:40 14,7 C 14,3 C 14,7 C 84 % 1006,0 hPa 0,0 l/m 3,4 km/h (1 Bft) SO 133 10 min 0,000 mm 355 W/m 12,0 C 14,7 C 8,0 km/h (2 Bft) 99 %
10.09.2017 13:50 15,1 C 14,7 C 15,1 C 82 % 1006,1 hPa 0,0 l/m 4,6 km/h (1 Bft) S 179 10 min 0,000 mm 334 W/m 12,0 C 15,1 C 9,7 km/h (2 Bft) 99 %
10.09.2017 14:00 15,5 C 15,1 C 15,5 C 79 % 1005,9 hPa 0,0 l/m 4,1 km/h (1 Bft) S-SW 207 10 min 0,101 mm 387 W/m 11,9 C 15,5 C 9,7 km/h (2 Bft) 100 %
10.09.2017 14:10 16,1 C 15,5 C 16,1 C 77 % 1005,9 hPa 0,0 l/m 4,7 km/h (1 Bft) S 180 10 min 0,000 mm 265 W/m 12,1 C 16,1 C 11,3 km/h (2 Bft) 100 %
10.09.2017 14:20 16,8 C 16,1 C 16,8 C 77 % 1005,9 hPa 0,0 l/m 6,6 km/h (2 Bft) S-SW 212 10 min 0,000 mm 802 W/m 12,7 C 16,7 C 17,7 km/h (3 Bft) 100 %
10.09.2017 14:30 17,2 C 16,8 C 17,3 C 68 % 1005,8 hPa 0,0 l/m 7,7 km/h (2 Bft) S 178 10 min 0,000 mm 160 W/m 11,2 C 16,6 C 20,9 km/h (4 Bft) 99 %
10.09.2017 14:40 17,7 C 17,2 C 17,7 C 72 % 1005,9 hPa 0,0 l/m 7,0 km/h (2 Bft) S 178 10 min 0,000 mm 717 W/m 12,6 C 17,4 C 17,7 km/h (3 Bft) 100 %
10.09.2017 14:50 17,2 C 17,2 C 17,8 C 69 % 1005,8 hPa 0,0 l/m 8,0 km/h (2 Bft) SW 226 10 min 0,000 mm 269 W/m 11,5 C 16,4 C 17,7 km/h (3 Bft) 99 %
10.09.2017 15:00 17,1 C 17,1 C 17,2 C 71 % 1005,9 hPa 0,0 l/m 8,1 km/h (2 Bft) S 190 10 min 0,305 mm 183 W/m 11,8 C 16,3 C 25,7 km/h (4 Bft) 99 %
10.09.2017 15:10 16,9 C 16,9 C 17,1 C 71 % 1005,9 hPa 0,0 l/m 8,1 km/h (2 Bft) S-SO 149 10 min 0,000 mm 213 W/m 11,6 C 16,0 C 16,1 km/h (3 Bft) 99 %
10.09.2017 15:20 16,8 C 16,7 C 16,9 C 73 % 1005,9 hPa 0,0 l/m 7,5 km/h (2 Bft) S-SW 192 10 min 0,000 mm 287 W/m 11,9 C 16,2 C 16,1 km/h (3 Bft) 100 %
10.09.2017 15:30 17,2 C 16,8 C 17,2 C 72 % 1006,1 hPa 0,0 l/m 6,4 km/h (2 Bft) SO 132 10 min 0,000 mm 798 W/m 12,1 C 17,2 C 16,1 km/h (3 Bft) 100 %
10.09.2017 15:40 17,2 C 17,2 C 17,3 C 71 % 1006,0 hPa 0,0 l/m 9,9 km/h (2 Bft) SO 146 10 min 0,000 mm 619 W/m 11,9 C 15,6 C 22,5 km/h (4 Bft) 100 %
10.09.2017 15:50 17,2 C 17,2 C 17,2 C 70 % 1006,0 hPa 0,0 l/m 8,6 km/h (2 Bft) SO 138 10 min 0,000 mm 258 W/m 11,7 C 16,1 C 17,7 km/h (3 Bft) 99 %
10.09.2017 16:00 17,3 C 17,1 C 17,3 C 70 % 1005,7 hPa 0,0 l/m 5,3 km/h (1 Bft) S-SO 163 10 min 0,229 mm 311 W/m 11,8 C 17,3 C 16,1 km/h (3 Bft) 99 %
10.09.2017 16:10 17,2 C 17,2 C 17,3 C 72 % 1005,7 hPa 0,0 l/m 6,2 km/h (2 Bft) SW 217 10 min 0,000 mm 538 W/m 12,1 C 17,2 C 17,7 km/h (3 Bft) 100 %
10.09.2017 16:20 17,5 C 17,2 C 17,5 C 69 % 1005,8 hPa 0,0 l/m 8,4 km/h (2 Bft) S-SW 194 0 min 0,000 mm 137 W/m 11,7 C 16,5 C 20,9 km/h (4 Bft) 100 %
10.09.2017 16:30 17,5 C 17,4 C 17,5 C 69 % 1005,6 hPa 0,0 l/m 7,3 km/h (2 Bft) SO 144 10 min 0,000 mm 178 W/m 11,7 C 17,1 C 17,7 km/h (3 Bft) 99 %
10.09.2017 16:40 17,8 C 17,4 C 17,8 C 70 % 1005,7 hPa 0,0 l/m 6,8 km/h (2 Bft) SW 234 10 min 0,000 mm 183 W/m 12,3 C 17,6 C 17,7 km/h (3 Bft) 100 %
10.09.2017 16:50 18,1 C 17,8 C 18,2 C 67 % 1005,6 hPa 0,0 l/m 5,0 km/h (1 Bft) SW 222 0 min 0,000 mm 127 W/m 11,9 C 18,1 C 12,9 km/h (3 Bft) 100 %
10.09.2017 17:00 17,7 C 17,7 C 18,1 C 68 % 1005,7 hPa 0,0 l/m 4,4 km/h (1 Bft) S-SW 193 0 min 0,152 mm 116 W/m 11,7 C 17,7 C 17,7 km/h (3 Bft) 100 %
10.09.2017 17:10 17,6 C 17,6 C 17,7 C 68 % 1005,6 hPa 0,0 l/m 4,9 km/h (1 Bft) S 175 0 min 0,000 mm 104 W/m 11,6 C 17,6 C 11,3 km/h (2 Bft) 100 %
10.09.2017 17:20 17,6 C 17,6 C 17,6 C 68 % 1005,8 hPa 0,0 l/m 6,1 km/h (2 Bft) SW 217 0 min 0,000 mm 104 W/m 11,6 C 17,6 C 17,7 km/h (3 Bft) 100 %
10.09.2017 17:30 17,3 C 17,3 C 17,6 C 68 % 1005,6 hPa 0,0 l/m 5,1 km/h (1 Bft) S 180 0 min 0,000 mm 76 W/m 11,3 C 17,3 C 16,1 km/h (3 Bft) 99 %
10.09.2017 17:40 16,9 C 16,9 C 17,3 C 71 % 1005,7 hPa 0,0 l/m 1,9 km/h (1 Bft) S-SW 213 0 min 0,000 mm 93 W/m 11,6 C 16,9 C 11,3 km/h (2 Bft) 100 %
10.09.2017 17:50 16,8 C 16,8 C 16,9 C 72 % 1005,7 hPa 0,0 l/m 1,3 km/h (1 Bft) S-SW 209 0 min 0,000 mm 91 W/m 11,7 C 16,8 C 8,0 km/h (2 Bft) 99 %
10.09.2017 18:00 16,8 C 16,8 C 16,8 C 69 % 1005,4 hPa 0,0 l/m 3,9 km/h (1 Bft) S-SW 199 0 min 0,076 mm 95 W/m 11,1 C 16,8 C 11,3 km/h (2 Bft) 99 %
10.09.2017 18:10 16,9 C 16,8 C 17,0 C 68 % 1005,2 hPa 0,0 l/m 3,0 km/h (1 Bft) S 178 0 min 0,000 mm 44 W/m 11,0 C 16,9 C 14,5 km/h (3 Bft) 99 %
10.09.2017 18:20 17,0 C 16,9 C 17,0 C 66 % 1005,2 hPa 0,0 l/m 3,8 km/h (1 Bft) S-SO 152 0 min 0,000 mm 40 W/m 10,6 C 17,0 C 14,5 km/h (3 Bft) 99 %
10.09.2017 18:30 16,9 C 16,9 C 17,0 C 68 % 1005,1 hPa 0,0 l/m 3,5 km/h (1 Bft) S 189 0 min 0,000 mm 37 W/m 11,0 C 16,9 C 11,3 km/h (2 Bft) 100 %
10.09.2017 18:40 16,8 C 16,8 C 16,9 C 69 % 1005,1 hPa 0,0 l/m 3,5 km/h (1 Bft) S 186 0 min 0,000 mm 33 W/m 11,1 C 16,8 C 11,3 km/h (2 Bft) 99 %
10.09.2017 18:50 16,6 C 16,6 C 16,8 C 69 % 1005,0 hPa 0,0 l/m 1,8 km/h (1 Bft) S-SW 200 0 min 0,000 mm 28 W/m 10,9 C 16,6 C 9,7 km/h (2 Bft) 99 %
10.09.2017 19:00 16,3 C 16,3 C 16,6 C 71 % 1005,1 hPa 0,0 l/m 1,0 km/h (0 Bft) S 189 0 min 0,026 mm 25 W/m 11,0 C 16,3 C 11,3 km/h (2 Bft) 100 %
10.09.2017 19:10 16,1 C 16,1 C 16,3 C 71 % 1005,0 hPa 0,0 l/m 0,7 km/h (0 Bft) S-SO 157 0 min 0,000 mm 21 W/m 10,8 C 16,1 C 8,0 km/h (2 Bft) 99 %
10.09.2017 19:20 15,9 C 15,9 C 16,1 C 72 % 1005,1 hPa 0,0 l/m 1,0 km/h (0 Bft) S 188 0 min 0,000 mm 12 W/m 10,9 C 15,9 C 8,0 km/h (2 Bft) 99 %
10.09.2017 19:30 15,6 C 15,6 C 15,9 C 72 % 1005,1 hPa 0,0 l/m 0,0 km/h (0 Bft) S 181 0 min 0,000 mm 9 W/m 10,6 C 15,6 C 1,6 km/h (1 Bft) 99 %
10.09.2017 19:40 15,4 C 15,4 C 15,6 C 73 % 1005,2 hPa 0,0 l/m 0,0 km/h (0 Bft) S 181 0 min 0,000 mm 0 W/m 10,6 C 15,4 C 0,0 km/h (0 Bft) 99 %
10.09.2017 19:50 15,1 C 15,1 C 15,4 C 74 % 1005,2 hPa 0,0 l/m 0,0 km/h (0 Bft) S 181 0 min 0,000 mm 0 W/m 10,5 C 15,1 C 0,0 km/h (0 Bft) 99 %
10.09.2017 20:00 14,8 C 14,8 C 15,1 C 75 % 1005,2 hPa 0,0 l/m 0,1 km/h (0 Bft) S-SO 166 0 min 0,000 mm 0 W/m 10,4 C 14,8 C 4,8 km/h (1 Bft) 98 %
10.09.2017 20:10 14,6 C 14,6 C 14,8 C 76 % 1005,2 hPa 0,0 l/m 0,9 km/h (0 Bft) S-SO 148 0 min 0,000 mm 0 W/m 10,4 C 14,6 C 6,4 km/h (2 Bft) 99 %
10.09.2017 20:20 14,5 C 14,5 C 14,6 C 76 % 1005,1 hPa 0,0 l/m 0,0 km/h (0 Bft) S-SO 148 0 min 0,000 mm 0 W/m 10,3 C 14,5 C 0,0 km/h (0 Bft) 99 %
10.09.2017 20:30 14,4 C 14,4 C 14,5 C 76 % 1005,1 hPa 0,0 l/m 0,0 km/h (0 Bft) S-SO 148 0 min 0,000 mm 0 W/m 10,2 C 14,4 C 0,0 km/h (0 Bft) 100 %
10.09.2017 20:40 14,2 C 14,2 C 14,4 C 77 % 1005,1 hPa 0,0 l/m 0,0 km/h (0 Bft) S-SO 148 0 min 0,000 mm 0 W/m 10,2 C 14,2 C 0,0 km/h (0 Bft) 100 %
10.09.2017 20:50 13,9 C 13,9 C 14,2 C 78 % 1005,1 hPa 0,0 l/m 0,0 km/h (0 Bft) S-SO 148 0 min 0,000 mm 0 W/m 10,1 C 13,9 C 0,0 km/h (0 Bft) 99 %
10.09.2017 21:00 13,7 C 13,7 C 13,9 C 79 % 1005,1 hPa 0,0 l/m 0,0 km/h (0 Bft) S-SO 148 0 min 0,025 mm 0 W/m 10,1 C 13,7 C 1,6 km/h (1 Bft) 99 %
10.09.2017 21:10 13,7 C 13,7 C 13,7 C 80 % 1005,1 hPa 0,0 l/m 0,0 km/h (0 Bft) N 0 0 min 0,000 mm 0 W/m 10,3 C 13,7 C 0,0 km/h (0 Bft) 96 %
10.09.2017 21:20 13,4 C 13,4 C 13,7 C 80 % 1005,2 hPa 0,0 l/m 0,0 km/h (0 Bft) N 0 0 min 0,000 mm 0 W/m 10,0 C 13,4 C 0,0 km/h (0 Bft) 98 %
10.09.2017 21:30 13,0 C 13,0 C 13,4 C 81 % 1005,2 hPa 0,0 l/m 0,0 km/h (0 Bft) N 0 0 min 0,000 mm 0 W/m 9,8 C 13,0 C 0,0 km/h (0 Bft) 97 %
10.09.2017 21:40 12,6 C 12,6 C 13,0 C 83 % 1005,2 hPa 0,0 l/m 0,0 km/h (0 Bft) N 0 0 min 0,000 mm 0 W/m 9,8 C 12,6 C 0,0 km/h (0 Bft) 98 %
10.09.2017 21:50 12,3 C 12,3 C 12,6 C 83 % 1005,4 hPa 0,0 l/m 0,0 km/h (0 Bft) N 0 0 min 0,000 mm 0 W/m 9,5 C 12,3 C 0,0 km/h (0 Bft) 97 %
10.09.2017 22:00 11,9 C 11,9 C 12,2 C 85 % 1005,4 hPa 0,0 l/m 0,0 km/h (0 Bft) N 0 0 min 0,025 mm 0 W/m 9,5 C 11,9 C 0,0 km/h (0 Bft) 98 %
10.09.2017 22:10 11,7 C 11,7 C 11,9 C 86 % 1005,2 hPa 0,0 l/m 0,0 km/h (0 Bft) N 0 0 min 0,000 mm 0 W/m 9,4 C 11,7 C 0,0 km/h (0 Bft) 97 %
10.09.2017 22:20 11,5 C 11,5 C 11,7 C 87 % 1005,1 hPa 0,0 l/m 0,0 km/h (0 Bft) N 0 0 min 0,000 mm 0 W/m 9,4 C 11,5 C 0,0 km/h (0 Bft) 97 %
10.09.2017 22:30 11,4 C 11,4 C 11,5 C 87 % 1005,1 hPa 0,0 l/m 0,0 km/h (0 Bft) N 0 0 min 0,000 mm 0 W/m 9,3 C 11,4 C 0,0 km/h (0 Bft) 98 %
10.09.2017 22:40 11,5 C 11,4 C 11,6 C 87 % 1004,9 hPa 0,0 l/m 0,0 km/h (0 Bft) N 0 0 min 0,000 mm 0 W/m 9,4 C 11,5 C 0,0 km/h (0 Bft) 98 %
10.09.2017 22:50 11,3 C 11,3 C 11,5 C 86 % 1004,9 hPa 0,0 l/m 0,0 km/h (0 Bft) N 0 0 min 0,000 mm 0 W/m 9,0 C 11,3 C 0,0 km/h (0 Bft) 89 %
10.09.2017 23:00 10,9 C 10,9 C 11,3 C 87 % 1004,8 hPa 0,0 l/m 0,0 km/h (0 Bft) S-SO 157 0 min 0,000 mm 0 W/m 8,8 C 10,9 C 1,6 km/h (1 Bft) 98 %
10.09.2017 23:10 10,7 C 10,7 C 10,9 C 87 % 1004,9 hPa 0,0 l/m 0,0 km/h (0 Bft) N 0 0 min 0,000 mm 0 W/m 8,6 C 10,7 C 0,0 km/h (0 Bft) 98 %
10.09.2017 23:20 10,4 C 10,4 C 10,7 C 87 % 1004,9 hPa 0,0 l/m 0,0 km/h (0 Bft) N 0 0 min 0,000 mm 0 W/m 8,3 C 10,4 C 0,0 km/h (0 Bft) 98 %
10.09.2017 23:30 10,1 C 10,1 C 10,4 C 88 % 1004,9 hPa 0,0 l/m 0,0 km/h (0 Bft) N 0 0 min 0,000 mm 0 W/m 8,2 C 10,1 C 0,0 km/h (0 Bft) 97 %
10.09.2017 23:40 10,6 C 10,1 C 10,6 C 89 % 1004,9 hPa 0,0 l/m 0,0 km/h (0 Bft) N 0 0 min 0,000 mm 0 W/m 8,9 C 10,6 C 0,0 km/h (0 Bft) 98 %
10.09.2017 23:50 11,2 C 10,6 C 11,2 C 89 % 1004,8 hPa 0,0 l/m 1,6 km/h (1 Bft) SO 135 0 min 0,000 mm 0 W/m 9,5 C 11,2 C 6,4 km/h (2 Bft) 97 %
_ Min-Zeit 23:30 23:30 23:30 18:20 00:20 - 00:20 - - - - - 23:30 23:30 03:00 22:50
Minimum _ 10,1 C 10,1 C 10,4 C 66 % 1002,4 hPa - 0,0 km/h (0 Bft) - - - - - 8,2 C 10,1 C 0,0 km/h (0 Bft) 89 %
_ Max-Zeit 16:50 16:50 16:50 05:50 13:00 00:00 15:40 - - 11:50 15:00 14:20 14:20 16:50 15:00 12:30
Maximum _ 18,2 C 17,8 C 18,2 C 90 % 1006,7 hPa 0,0 l/m 9,9 km/h
SO (2 Bft)
- - 20 min 0,305 mm 802 W/m 12,7 C 18,1 C 25,7 km/h
S (4 Bft)
100 %
Durchschnitt _ 13,5 C 13,4 C 13,6 C 83 % 1004,9 hPa #0,0 l/m 2,2 km/h (1 Bft) S-SW - #6:40 h #1,498 mm 207 W/m 10,5 C 13,4 C 7,0 km/h (2 Bft) 98 %
PRIVATE WETTERSTATION BILLIGHEIM-ALLFELD - www.neckar-odenwald-wetter.de - Holger Sonntag